This demonstration page uses our WeatherBlox Daily Observations layout. Learn more.

Left ArrowRight Arrow

Hourly Observations for October 1, 2018

Temp ( °F °C ) Dew Point ( °F °C ) Humidity (%) Winds ( mph kmh ) Pressure ( in mb ) Visibility ( mi km ) Precip ( " mm )
12:08 am 00:08 Cloudy with Mist and Fog 46 8 46 8 100 100 NE 8 13 30.18 1022 4 6 0.00 0.03
12:57 am 00:57 Cloudy with Mist and Fog 46 7.8 46 7.8 100 100 ENE 7 11 30.16 1021 3 5 0.00 0.03
1:57 am 01:57 Cloudy 46 7.8 45 7.2 96 96 ENE 9 15 30.15 1021 7 11 0.00 0.00
2:26 am 02:26 Cloudy 46 8 45 7 93 93 ENE 8 13 30.15 1021 9 14 0.00 0.00
2:48 am 02:48 Cloudy with Mist and Fog 46 8 46 8 100 100 ENE 8 13 30.15 1021 5 8 0.00 0.00
2:57 am 02:57 Cloudy with Mist and Fog 46 7.8 46 7.8 100 100 ENE 9 15 30.13 1020 6 10 0.00 0.00
3:57 am 03:57 Cloudy 46 7.8 46 7.8 100 100 NE 8 13 30.12 1020 9 14 0.00 0.00
4:57 am 04:57 Cloudy with Mist and Fog 46 7.8 46 7.8 100 100 NE 7 11 30.12 1020 4 6 0.00 0.03
5:57 am 05:57 Cloudy with Mist and Fog 46 7.8 46 7.8 100 100 E 9 15 30.10 1019 5 8 0.00 0.00
6:23 am 06:23 Cloudy with Mist and Fog 46 8 46 8 100 100 NE 6 9 30.12 1020 4 6 0.00 0.00
6:57 am 06:57 Cloudy with Light Rain 47 8.3 46 7.8 97 97 NNW 7 11 30.14 1021 3 5 0.01 0.25
7:57 am 07:57 Cloudy with Mist and Fog 47 8.3 46 7.8 97 97 N 9 15 30.15 1021 4 6 0.01 0.25
8:57 am 08:57 Cloudy 47 8.3 46 7.8 97 97 N 9 15 30.16 1021 10 16 0.00 0.00
9:57 am 09:57 Cloudy 48 8.9 46 7.8 93 93 NNE 9 15 30.14 1021 10 16 0.00 0.00
10:57 am 10:57 Cloudy 50 10 47 8.3 89 89 ENE 7 11 30.13 1020 10 16 0.00 0.00
11:51 am 11:51 Cloudy 52 11 46 8 82 82 VRB 3 6 30.12 1020 10 16 0.00 0.00
11:57 am 11:57 Cloudy 51 10.6 47 8.3 86 86 N 3 6 30.13 1020 10 16 0.00 0.00
12:57 pm 12:57 Cloudy 52 11.1 47 8.3 83 83 N 8 13 30.13 1020 10 16 0.00 0.00
1:57 pm 13:57 Cloudy 53 11.7 48 8.9 83 83 N 8 13 30.13 1020 10 16 0.00 0.00
2:57 pm 14:57 Cloudy 54 12.2 48 8.9 80 80 NNW 7 11 30.12 1020 10 16 0.00 0.00
3:05 pm 15:05 Cloudy 55 13 48 9 77 77 N 8 13 30.09 1019 10 16 0.00 0.00
3:57 pm 15:57 Cloudy 55 12.8 49 9.4 80 80 NNE 8 13 30.11 1020 10 16 0.00 0.00
4:57 pm 16:57 Cloudy 54 12.2 48 8.9 80 80 NNE 3 6 30.12 1020 10 16 0.00 0.00
5:57 pm 17:57 Cloudy 54 12.2 48 8.9 80 80 ENE 3 6 30.11 1020 10 16 0.00 0.00
6:57 pm 18:57 Cloudy 53 11.7 48 8.9 83 83 NE 7 11 30.12 1020 10 16 0.00 0.00
7:19 pm 19:19 Cloudy 54 12 48 9 82 82 NE 7 11 30.12 1020 10 16 0.00 0.00
7:57 pm 19:57 Cloudy 52 11.1 49 9.4 89 89 ENE 7 11 30.12 1020 10 16 0.00 0.00
8:57 pm 20:57 Cloudy 52 11.1 48 8.9 86 86 NE 8 13 30.13 1020 10 16 0.00 0.00
9:57 pm 21:57 Cloudy 51 10.6 48 8.9 89 89 ENE 7 11 30.14 1021 10 16 0.00 0.00
10:23 pm 22:23 Cloudy 52 11 48 9 88 88 E 8 13 30.12 1020 10 16 0.00 0.00
10:57 pm 22:57 Cloudy 50 10 48 8.9 93 93 E 8 13 30.13 1020 10 16 0.00 0.00
11:57 pm 23:57 Cloudy 50 10 48 8.9 93 93 ESE 5 7 30.13 1020 10 16 0.00 0.00

Powered by AerisWeather